Weather Roundup
Issued by NWS Springfield, MO

Home | Current Version | Previous Version | Text Only | Print | Product List | Glossary On
Versions: 1 2 3 4 5 6 7 8 9 10 11 12 13 14 15 16 17 18 19 20 21 22 23 24 25 26 27 28 29 30 31 32 33 34 35 36 37 38 39 40 41 42 43 44 45 46 47 48 49 50
624
NZUS99 KSGF 260707
HRRSGF

HOURLY WEATHER
NATIONAL WEATHER SERVICE SPRINGFIELD MO
200 AM CDT TUE JUL 26 2016

......SGF CWA......

CITY           SKY/WX    TMP DP  RH WIND       PRES   REMARKS
SPRINGFIELD    CLEAR     74  70  87 CALM      30.04R
JOPLIN         CLOUDY    74  73  97 CALM      30.03F
WEST PLAINS    CLOUDY    76  72  87 CALM      30.05S
ROLLA          CLOUDY    72  70  93 CALM      30.03S
OSAGE BEACH    CLOUDY    73  71  93 E3        30.04S
BRANSON        CLOUDY    73  72  94 CALM      30.04S

......SURROUNDING SGF CWA......

CITY           SKY/WX    TMP DP  RH WIND       PRES   REMARKS
CHANUTE        CLOUDY    76  73  91 NE5       30.03F
PARSONS          N/A    N/A N/A N/A MISG      30.03F
COFFEYVILLE    CLOUDY    75  74  96 NE3       30.01F
EMPORIA        CLOUDY    74  72  93 CALM      30.05F
GROVE OK       CLOUDY    73  73 100 CALM      30.02F
ROGERS AR      CLOUDY    75  73  93 E5        30.05S
SILOAM SPRINGS CLEAR     73  64  73 CALM      30.04S
HARRISON AR    MOCLDY    74  73  97 N3        30.04S
NEAR YELLVILLE CLOUDY    75  70  83 CALM      29.99S

......KANSAS AND MISSOURI......

CITY           SKY/WX    TMP DP  RH WIND       PRES   REMARKS
KANSAS CTY INT MOCLDY    73  69  87 NE6       30.06S
DOWNTOWN KC    CLOUDY    78  68  71 E3        30.04S
COLUMBIA       CLEAR     70  69  97 NE5       30.04S
SEDALIA        CLOUDY    73  70  90 CALM      30.06R
ST JOSEPH      CLEAR     69  65  86 N5        30.06S
ST LOUIS       CLOUDY    79  74  84 N5        30.01F
SPIRIT OF STL  CLOUDY    78  74  87 CALM      30.00F
KIRKSVILLE     CLEAR     64  63  96 N3        30.07S
WICHITA        CLOUDY    77  72  84 E5        30.05F
TOPEKA         MOCLDY    71  67  87 CALM      30.05F
OLATHE         CLOUDY    74  68  81 E5        30.06R

......TENNESSEE......

CITY           SKY/WX    TMP DP  RH WIND       PRES   REMARKS
MEMPHIS        CLEAR     82  75  79 E5        29.97F
NASHVILLE      CLEAR     77  72  84 CALM      30.02F

......ARKANSAS.......

CITY           SKY/WX    TMP DP  RH WIND       PRES   REMARKS
FAYETTEVILLE   CLOUDY    72  72 100 CALM      30.04R
FT SMITH       CLEAR     77  71  82 NE6       29.97F
LITTLE ROCK    CLEAR     83  77  82 SE3       29.96S HX  92

......OKLAHOMA.......

CITY           SKY/WX    TMP DP  RH WIND       PRES   REMARKS
TULSA          CLOUDY    80  74  81 CALM      29.98F
PONCA CITY     CLOUDY    77  70  79 MISG      30.02F
MCALESTER      PTCLDY    81  74  79 N6        30.00S
OKLAHOMA CITY  TSTM      73  72  96 E8        30.05S

......IOWA............

CITY           SKY/WX    TMP DP  RH WIND       PRES   REMARKS
DES MOINES     CLEAR     73  67  81 CALM      30.07S
QUAD CITIES    CLOUDY    68  64  87 CALM      30.04S

......ILLINOIS........

CITY           SKY/WX    TMP DP  RH WIND       PRES   REMARKS
QUINCY         PTCLDY    71  67  87 CALM      30.04S
CHICAGO        PTCLDY    74  64  71 CALM      30.03S




USA.gov is the U.S. government's official web portal to all federal, state and local government web resources and services.